TimeMDT,TemperatureF,Dew PointF,Humidity,Sea Level PressureIn,VisibilityMPH,Wind Direction,Wind SpeedMPH,Gust SpeedMPH,PrecipitationIn,Events,Conditions,WindDirDegrees,DateUTC
12:51 AM,48.9,36.0,61,29.86,10.0,WNW,4.6,-,N/A,,Overcast,300,2013-05-16 06:51:00
1:51 AM,48.0,39.0,71,29.85,10.0,North,3.5,-,0.00,Rain,Light Rain,350,2013-05-16 07:51:00
2:51 AM,46.0,41.0,83,29.86,10.0,NNE,3.5,-,0.02,Rain,Light Rain,20,2013-05-16 08:51:00
3:51 AM,46.9,41.0,80,29.84,10.0,North,4.6,-,0.00,,Overcast,10,2013-05-16 09:51:00
4:51 AM,43.0,39.9,89,29.86,10.0,North,5.8,-,N/A,,Partly Cloudy,350,2013-05-16 10:51:00
5:51 AM,43.0,39.0,86,29.85,10.0,Calm,Calm,-,N/A,,Scattered Clouds,0,2013-05-16 11:51:00
6:51 AM,43.0,37.9,82,29.86,10.0,NW,4.6,-,N/A,,Overcast,310,2013-05-16 12:51:00
7:51 AM,43.0,36.0,76,29.87,10.0,WNW,3.5,-,N/A,,Scattered Clouds,290,2013-05-16 13:51:00
8:51 AM,46.0,37.0,71,29.88,10.0,WNW,3.5,-,N/A,,Clear,290,2013-05-16 14:51:00
9:51 AM,48.0,36.0,63,29.88,10.0,NW,4.6,-,N/A,,Overcast,310,2013-05-16 15:51:00
10:51 AM,48.9,37.0,64,29.88,10.0,Calm,Calm,-,N/A,,Overcast,0,2013-05-16 16:51:00
11:51 AM,51.1,37.0,59,29.88,10.0,NNW,3.5,-,N/A,,Overcast,330,2013-05-16 17:51:00
12:51 PM,54.0,37.0,53,29.86,10.0,Calm,Calm,-,N/A,,Clear,0,2013-05-16 18:51:00
1:51 PM,55.0,36.0,49,29.84,10.0,West,6.9,-,N/A,,Mostly Cloudy,260,2013-05-16 19:51:00
2:51 PM,55.0,37.0,51,29.84,10.0,Calm,Calm,-,0.00,,Overcast,0,2013-05-16 20:51:00
3:51 PM,55.9,35.1,45,29.82,10.0,WNW,4.6,-,N/A,,Overcast,290,2013-05-16 21:51:00
4:51 PM,57.0,34.0,42,29.82,10.0,WSW,3.5,-,N/A,,Partly Cloudy,250,2013-05-16 22:51:00
5:51 PM,57.0,34.0,42,29.81,10.0,Calm,Calm,-,N/A,,Clear,0,2013-05-16 23:51:00
6:51 PM,55.9,34.0,44,29.80,10.0,Calm,Calm,-,N/A,,Mostly Cloudy,0,2013-05-17 00:51:00
7:51 PM,54.0,37.0,53,29.81,10.0,West,5.8,-,N/A,,Overcast,280,2013-05-17 01:51:00
8:51 PM,53.1,37.9,57,29.81,10.0,NNW,4.6,-,N/A,,Overcast,340,2013-05-17 02:51:00
9:51 PM,51.1,37.0,59,29.82,10.0,North,8.1,-,N/A,,Mostly Cloudy,360,2013-05-17 03:51:00
10:51 PM,50.0,36.0,59,29.82,10.0,North,9.2,-,N/A,,Overcast,360,2013-05-17 04:51:00
11:51 PM,48.9,37.9,66,29.83,10.0,NW,3.5,-,N/A,,Overcast,310,2013-05-17 05:51:00